Location: ActonStarParty
(42.4766°N, 71.4538°W)
Time: 07:46:46
(UTC-04:00)

SPOT 5 - Pass Details

Date: 19 April 2018
Orbit: 623 x 815 km, 98.3° (Epoch: 21 September)

Event Time Altitude Azimuth Distance (km) Brightness Sun altitude
Exits shadow 22:30:54 59° 292° (WNW) 783 3.2 -27.9°
Drops below altitude 10° 22:34:54 10° 340° (NNW) 2,077 6.1 -28.4°
Sets 22:37:06 0° 344° (NNW) 2,970 7.1 -28.6°
